,,Stat6,,Stat2,,Stat8,,Stat9,,Stat10,,Wind1,,Wind1,
time,status,PA1M_AVG,status,PR1M_SUM,status,RH1M_AVG,status,SR1M_AVG,status,TA1M_AVG,status,W1dAve1m,status,W1sAve1m,
2005-09-25, 00:00:01,VALID,919.702,VALID,0,VALID,100,VALID,0.0849042,VALID,19.4779,VALID,8,VALID,0.128997,
2005-09-25, 00:01:00,VALID,919.69,VALID,0,VALID,100,VALID,0.0339617,VALID,19.472,VALID,344,VALID,0.643056,
2005-09-25, 00:02:00,VALID,919.668,VALID,0,VALID,100,VALID,-0.0339617,VALID,19.431,VALID,340,VALID,0.719308,
2005-09-25, 00:03:00,VALID,919.644,VALID,0,VALID,100,VALID,-0.0169808,VALID,19.4471,VALID,22,VALID,1.51036,
2005-09-25, 00:04:01,VALID,919.625,VALID,0,VALID,100,VALID,0,VALID,19.463,VALID,24,VALID,1.5261,
2005-09-25, 00:05:01,VALID,919.619,VALID,0,VALID,100,VALID,-0.0169808,VALID,19.4928,VALID,21,VALID,1.10882,
2005-09-25, 00:06:00,VALID,919.612,VALID,0,VALID,100,VALID,-0.0169808,VALID,19.505,VALID,18,VALID,0.185897,
2005-09-25, 00:07:01,VALID,919.602,VALID,0,VALID,100,VALID,-0.0169808,VALID,19.4923,VALID,18,VALID,0.0053267,
2005-09-25, 00:08:00,VALID,919.577,VALID,0,VALID,100,VALID,-0.0339617,VALID,19.4891,VALID,18,VALID,0.00989583,
2005-09-25, 00:09:00,VALID,919.557,VALID,0,VALID,100,VALID,-0.0339617,VALID,19.4889,VALID,27,VALID,0.585582,
2005-09-25, 00:10:01,VALID,919.545,VALID,0,VALID,100,VALID,-0.0169808,VALID,19.5211,VALID,24,VALID,0.236719,
2005-09-25, 00:11:01,VALID,919.531,VALID,0,VALID,100,VALID,-0.0679233,VALID,19.5346,VALID,24,VALID,0.401172,
2005-09-25, 00:12:01,VALID,919.487,VALID,0,VALID,100,VALID,-0.0339617,VALID,19.4854,VALID,5,VALID,1.19989,
2005-09-25, 00:13:01,VALID,919.502,VALID,0,VALID,100,VALID,-0.0169808,VALID,19.4605,VALID,358,VALID,0.480373,
2005-09-25, 00:14:01,VALID,919.488,VALID,0,VALID,100,VALID,-0.0169808,VALID,19.4538,VALID,6,VALID,0.774926,
2005-09-25, 00:15:01,VALID,919.468,VALID,0,VALID,100,VALID,0,VALID,19.4466,VALID,18,VALID,0.598895,
2005-09-25, 00:16:00,VALID,919.434,VALID,0,VALID,100,VALID,-0.0169808,VALID,19.4501,VALID,25,VALID,1.42617,
2005-09-25, 00:17:01,VALID,919.428,VALID,0,VALID,100,VALID,0,VALID,19.4829,VALID,4,VALID,0.861852,
2005-09-25, 00:18:00,VALID,919.433,VALID,0,VALID,100,VALID,-0.0169808,VALID,19.467,VALID,219,VALID,1.05387,
2005-09-25, 00:19:01,VALID,919.398,VALID,0,VALID,100,VALID,-0.0169808,VALID,19.4153,VALID,24,VALID,1.4135,
2005-09-25, 00:20:01,VALID,919.396,VALID,0,VALID,100,VALID,-0.0509425,VALID,19.3927,VALID,20,VALID,1.67302,
2005-09-25, 00:21:01,VALID,919.385,VALID,0,VALID,100,VALID,-0.0679233,VALID,19.3793,VALID,20,VALID,1.60462,
2005-09-25, 00:22:01,VALID,919.377,VALID,0,VALID,100,VALID,-0.0509425,VALID,19.386,VALID,24,VALID,1.4206,
2005-09-25, 00:23:01,VALID,919.36,VALID,0,VALID,100,VALID,-0.0339617,VALID,19.3796,VALID,1,VALID,0.58647,
2005-09-25, 00:24:01,VALID,919.337,VALID,0,VALID,100,VALID,-0.0509425,VALID,19.3701,VALID,13,VALID,0.757626,
2005-09-25, 00:25:01,VALID,919.313,VALID,0,VALID,100,VALID,-0.0169808,VALID,19.3763,VALID,359,VALID,0.364462,
2005-09-25, 00:26:01,VALID,919.269,VALID,0,VALID,100,VALID,-0.0169808,VALID,19.3694,VALID,13,VALID,0.524709,
2005-09-25, 00:27:01,VALID,919.227,VALID,0,VALID,100,VALID,-0.0509425,VALID,19.3796,VALID,28,VALID,0.959666,
2005-09-25, 00:28:01,VALID,919.202,VALID,0,VALID,100,VALID,-0.0339617,VALID,19.4089,VALID,26,VALID,0.893229,
2005-09-25, 00:29:01,VALID,919.151,VALID,0,VALID,100,VALID,-0.0509425,VALID,19.4156,VALID,6,VALID,0.813227,
2005-09-25, 00:30:01,VALID,919.116,VALID,0,VALID,100,VALID,-0.0679233,VALID,19.3826,VALID,29,VALID,1.16815,
2005-09-25, 00:31:01,VALID,919.085,VALID,0,VALID,100,VALID,-0.0339617,VALID,19.3957,VALID,30,VALID,0.68608,
2005-09-25, 00:32:01,VALID,919.039,VALID,0,VALID,100,VALID,-0.0339617,VALID,19.3957,VALID,22,VALID,0.952257,
2005-09-25, 00:33:01,VALID,919.014,VALID,0,VALID,100,VALID,-0.0679233,VALID,19.3865,VALID,29,VALID,0.59282,
2005-09-25, 00:34:01,VALID,919.011,VALID,0,VALID,100,VALID,-0.0849042,VALID,19.3637,VALID,12,VALID,0.302827,
2005-09-25, 00:35:01,VALID,918.983,VALID,0,VALID,100,VALID,-0.0679233,VALID,19.3607,VALID,15,VALID,0.77474,
2005-09-25, 00:36:01,VALID,918.981,VALID,0,VALID,100,VALID,-0.0849042,VALID,19.3771,VALID,13,VALID,0.766211,
2005-09-25, 00:37:01,VALID,918.964,VALID,0,VALID,100,VALID,-0.0339617,VALID,19.3537,VALID,9,VALID,0.398438,
2005-09-25, 00:38:01,VALID,918.959,VALID,0,VALID,100,VALID,-0.0679233,VALID,19.3602,VALID,13,VALID,0.186806,
2005-09-25, 00:39:01,VALID,918.958,VALID,0,VALID,100,VALID,-0.0509425,VALID,19.3738,VALID,13,VALID,0.0985137,
2005-09-25, 00:40:01,VALID,918.949,VALID,0,VALID,100,VALID,-0.0679233,VALID,19.3639,VALID,13,VALID,0.567224,
2005-09-25, 00:41:01,VALID,918.918,VALID,0,VALID,100,VALID,-0.0509425,VALID,19.3604,VALID,13,VALID,0.995561,
2005-09-25, 00:42:01,VALID,918.896,VALID,0,VALID,100,VALID,-0.0509425,VALID,19.347,VALID,13,VALID,1.37637,
2005-09-25, 00:43:01,VALID,918.865,VALID,0,VALID,100,VALID,-0.0509425,VALID,19.315,VALID,3,VALID,1.33843,
2005-09-25, 00:44:01,VALID,918.837,VALID,0,VALID,100,VALID,-0.0509425,VALID,19.3023,VALID,16,VALID,1.04226,
2005-09-25, 00:45:01,VALID,918.829,VALID,0,VALID,100,VALID,-0.0339617,VALID,19.2956,VALID,4,VALID,1.15359,
2005-09-25, 00:46:01,VALID,918.829,VALID,0,VALID,100,VALID,-0.0339617,VALID,19.2862,VALID,17,VALID,0.87686,
2005-09-25, 00:47:01,VALID,918.812,VALID,0,VALID,100,VALID,-0.0679233,VALID,19.2698,VALID,7,VALID,0.779119,
2005-09-25, 00:48:01,VALID,918.838,VALID,0,VALID,100,VALID,-0.0509425,VALID,19.2959,VALID,338,VALID,0.716518,
2005-09-25, 00:49:00,VALID,918.806,VALID,0,VALID,100,VALID,-0.0339617,VALID,19.2929,VALID,352,VALID,1.14658,
2005-09-25, 00:50:00,VALID,918.792,VALID,0,VALID,100,VALID,-0.0849042,VALID,19.2574,VALID,341,VALID,1.10312,
2005-09-25, 00:51:00,VALID,918.79,VALID,0,VALID,100,VALID,-0.0339617,VALID,19.2375,VALID,10,VALID,1.06008,
2005-09-25, 00:52:00,VALID,918.799,VALID,0,VALID,100,VALID,-0.0679233,VALID,19.2504,VALID,16,VALID,0.358203,
2005-09-25, 00:53:00,VALID,918.811,VALID,0,VALID,100,VALID,-0.0679233,VALID,19.2802,VALID,16,VALID,0.664773,
2005-09-25, 00:54:00,VALID,918.798,VALID,0,VALID,100,VALID,-0.0679233,VALID,19.3035,VALID,22,VALID,0.831445,
2005-09-25, 00:55:00,VALID,918.812,VALID,0,VALID,100,VALID,-0.0679233,VALID,19.2961,VALID,15,VALID,0.74535,
2005-09-25, 00:56:00,VALID,918.811,VALID,0,VALID,100,VALID,-0.0509425,VALID,19.3152,VALID,19,VALID,0.727061,
2005-09-25, 00:57:00,VALID,918.807,VALID,0,VALID,100,VALID,-0.0509425,VALID,19.3152,VALID,17,VALID,1.00037,
2005-09-25, 00:58:00,VALID,918.8,VALID,0,VALID,100,VALID,-0.0849042,VALID,19.3122,VALID,10,VALID,1.03462,
2005-09-25, 00:59:00,VALID,918.805,VALID,0,VALID,100,VALID,-0.0849042,VALID,19.2795,VALID,354,VALID,0.832961,
2005-09-25, 01:00:00,VALID,918.808,VALID,0,VALID,100,VALID,-0.0509425,VALID,19.2469,VALID,329,VALID,0.507999,
2005-09-25, 01:01:00,VALID,918.796,VALID,0,VALID,100,VALID,-0.0679233,VALID,19.2638,VALID,11,VALID,0.540334,
2005-09-25, 01:02:00,VALID,918.793,VALID,0,VALID,100,VALID,-0.0679233,VALID,19.2991,VALID,360,VALID,0.300872,
2005-09-25, 01:03:00,VALID,918.776,VALID,0,VALID,100,VALID,-0.0679233,VALID,19.3189,VALID,323,VALID,0.337936,
2005-09-25, 01:04:00,VALID,918.768,VALID,0,VALID,100,VALID,-0.0509425,VALID,19.2924,VALID,20,VALID,1.38832,
2005-09-25, 01:05:00,VALID,918.75,VALID,0,VALID,100,VALID,-0.0339617,VALID,19.3152,VALID,19,VALID,0.749428,
2005-09-25, 01:06:00,VALID,918.755,VALID,0,VALID,100,VALID,-0.0169808,VALID,19.3249,VALID,14,VALID,0.517078,
2005-09-25, 01:07:00,VALID,918.746,VALID,0,VALID,100,VALID,-0.0509425,VALID,19.344,VALID,14,VALID,0.493786,
2005-09-25, 01:08:00,VALID,918.713,VALID,0,VALID,100,VALID,-0.0679233,VALID,19.3503,VALID,17,VALID,0.823289,
2005-09-25, 01:09:00,VALID,918.698,VALID,0,VALID,100,VALID,-0.0169808,VALID,19.3373,VALID,20,VALID,0.215116,
2005-09-25, 01:10:00,VALID,918.685,VALID,0,VALID,100,VALID,-0.0169808,VALID,19.312,VALID,20,VALID,0.807165,
2005-09-25, 01:11:00,VALID,918.653,VALID,0,VALID,100,VALID,-0.0169808,VALID,19.3349,VALID,21,VALID,0.743862,
2005-09-25, 01:12:00,VALID,918.64,VALID,0,VALID,100,VALID,-0.0339617,VALID,19.3214,VALID,11,VALID,0.863758,
2005-09-25, 01:13:00,VALID,918.634,VALID,0,VALID,100,VALID,-0.0679233,VALID,19.3314,VALID,17,VALID,1.16695,
2005-09-25, 01:14:00,VALID,918.626,VALID,0,VALID,100,VALID,-0.0679233,VALID,19.3341,VALID,10,VALID,0.364984,
2005-09-25, 01:15:00,VALID,918.618,VALID,0,VALID,100,VALID,-0.0849042,VALID,19.3575,VALID,15,VALID,0.458394,
2005-09-25, 01:16:00,VALID,918.603,VALID,0,VALID,100,VALID,-0.0509425,VALID,19.3274,VALID,20,VALID,0.665153,
2005-09-25, 01:17:00,VALID,918.608,VALID,0,VALID,100,VALID,0.0339617,VALID,19.3401,VALID,20,VALID,0.283558,
2005-09-25, 01:18:00,VALID,918.603,VALID,0,VALID,100,VALID,0.0169808,VALID,19.3493,VALID,29,VALID,0.138529,
2005-09-25, 01:19:00,VALID,918.593,VALID,0,VALID,100,VALID,0,VALID,19.3495,VALID,23,VALID,1.4077,
2005-09-25, 01:20:00,VALID,918.589,VALID,0,VALID,100,VALID,0,VALID,19.3299,VALID,19,VALID,1.59829,
2005-09-25, 01:21:00,VALID,918.592,VALID,0,VALID,100,VALID,0.0169808,VALID,19.3202,VALID,7,VALID,0.408612,
2005-09-25, 01:22:00,VALID,918.59,VALID,0,VALID,100,VALID,0.0169808,VALID,19.2651,VALID,234,VALID,0.795313,
2005-09-25, 01:23:00,VALID,918.584,VALID,0,VALID,100,VALID,0,VALID,19.2303,VALID,264,VALID,0.745313,
2005-09-25, 01:24:00,VALID,918.588,VALID,0,VALID,100,VALID,0,VALID,19.1856,VALID,178,VALID,0.486374,
2005-09-25, 01:25:00,VALID,918.587,VALID,0,VALID,100,VALID,0.0339617,VALID,19.1812,VALID,62,VALID,0.193359,
2005-09-25, 01:26:00,VALID,918.571,VALID,0,VALID,100,VALID,0,VALID,19.2139,VALID,32,VALID,0.400586,
2005-09-25, 01:27:00,VALID,918.554,VALID,0,VALID,100,VALID,0.0169808,VALID,19.2174,VALID,346,VALID,0.753906,
2005-09-25, 01:28:00,VALID,918.527,VALID,0,VALID,100,VALID,0.0339617,VALID,19.1846,VALID,16,VALID,1.07049,
2005-09-25, 01:29:00,VALID,918.518,VALID,0,VALID,100,VALID,0,VALID,19.1558,VALID,316,VALID,0.684451,
2005-09-25, 01:30:00,VALID,918.52,VALID,0,VALID,100,VALID,0,VALID,19.1297,VALID,7,VALID,0.482469,
2005-09-25, 01:31:00,VALID,918.508,VALID,0,VALID,100,VALID,0.0169808,VALID,19.1655,VALID,11,VALID,1.15492,
2005-09-25, 01:32:00,VALID,918.518,VALID,0,VALID,100,VALID,0.0339617,VALID,19.1655,VALID,14,VALID,0.836496,
2005-09-25, 01:33:00,VALID,918.515,VALID,0,VALID,100,VALID,0.0169808,VALID,19.1558,VALID,52,VALID,0.331499,
2005-09-25, 01:34:00,VALID,918.54,VALID,0,VALID,100,VALID,0.0169808,VALID,19.1593,VALID,98,VALID,0.622692,
2005-09-25, 01:35:00,VALID,918.539,VALID,0,VALID,100,VALID,0,VALID,19.1662,VALID,321,VALID,0.510831,
2005-09-25, 01:36:00,VALID,918.55,VALID,0,VALID,100,VALID,0.0169808,VALID,19.1466,VALID,344,VALID,0.322976,
2005-09-25, 01:37:00,VALID,918.562,VALID,0,VALID,100,VALID,0,VALID,19.1496,VALID,16,VALID,1.00545,
2005-09-25, 01:38:00,VALID,918.539,VALID,0,VALID,100,VALID,0.0509425,VALID,19.1203,VALID,24,VALID,1.37083,
2005-09-25, 01:39:00,VALID,918.527,VALID,0,VALID,100,VALID,0.0169808,VALID,19.1268,VALID,17,VALID,1.54592,
2005-09-25, 01:40:00,VALID,918.518,VALID,0,VALID,100,VALID,0,VALID,19.1337,VALID,12,VALID,1.53404,
2005-09-25, 01:41:00,VALID,918.506,VALID,0,VALID,100,VALID,0,VALID,19.0945,VALID,357,VALID,1.33158,
2005-09-25, 01:42:00,VALID,918.506,VALID,0,VALID,100,VALID,0.0509425,VALID,19.049,VALID,13,VALID,1.07755,
2005-09-25, 01:43:00,VALID,918.514,VALID,0,VALID,100,VALID,0.0169808,VALID,19.0359,VALID,15,VALID,0.735677,
2005-09-25, 01:44:00,VALID,918.505,VALID,0,VALID,100,VALID,0.0169808,VALID,19.0557,VALID,28,VALID,0.768643,
2005-09-25, 01:45:00,VALID,918.509,VALID,0,VALID,100,VALID,0,VALID,19.0557,VALID,27,VALID,0.603693,
2005-09-25, 01:46:00,VALID,918.491,VALID,0,VALID,100,VALID,0,VALID,19.0567,VALID,21,VALID,1.5106,
2005-09-25, 01:47:00,VALID,918.488,VALID,0,VALID,100,VALID,-0.0849042,VALID,19.0447,VALID,12,VALID,1.64989,
2005-09-25, 01:48:00,VALID,918.477,VALID,0,VALID,100,VALID,-0.0849042,VALID,19.0122,VALID,13,VALID,1.81571,
2005-09-25, 01:49:00,VALID,918.497,VALID,0,VALID,100,VALID,-0.0679233,VALID,18.9864,VALID,4,VALID,1.246,
2005-09-25, 01:50:00,VALID,918.488,VALID,0,VALID,100,VALID,-0.101885,VALID,18.9673,VALID,354,VALID,1.99115,
2005-09-25, 01:51:00,VALID,918.506,VALID,0,VALID,100,VALID,-0.101885,VALID,18.9474,VALID,345,VALID,1.04137,
2005-09-25, 01:52:00,VALID,918.508,VALID,0,VALID,100,VALID,-0.101885,VALID,18.9603,VALID,19,VALID,1.19159,
2005-09-25, 01:53:00,VALID,918.508,VALID,0,VALID,100,VALID,-0.101885,VALID,18.967,VALID,22,VALID,1.14063,
2005-09-25, 01:54:00,VALID,918.481,VALID,0,VALID,100,VALID,-0.101885,VALID,18.9799,VALID,18,VALID,1.28743,
2005-09-25, 01:55:00,VALID,918.462,VALID,0,VALID,100,VALID,-0.0849042,VALID,18.9802,VALID,356,VALID,1.28325,
2005-09-25, 01:56:00,VALID,918.455,VALID,0,VALID,100,VALID,-0.118866,VALID,18.9573,VALID,11,VALID,0.985119,
2005-09-25, 01:57:00,VALID,918.415,VALID,0,VALID,100,VALID,-0.0849042,VALID,18.9409,VALID,11,VALID,1.52945,
2005-09-25, 01:58:00,VALID,918.392,VALID,0,VALID,100,VALID,-0.0849042,VALID,18.9409,VALID,9,VALID,1.35521,
2005-09-25, 01:59:00,VALID,918.38,VALID,0,VALID,100,VALID,-0.0849042,VALID,18.9576,VALID,2,VALID,1.14653,
2005-09-25, 02:00:00,VALID,918.378,VALID,0,VALID,100,VALID,-0.0849042,VALID,18.9449,VALID,5,VALID,0.950149,
2005-09-25, 02:01:00,VALID,918.369,VALID,0,VALID,100,VALID,-0.0509425,VALID,18.9511,VALID,2,VALID,1.01042,
2005-09-25, 02:02:00,VALID,918.359,VALID,0,VALID,100,VALID,0,VALID,18.9596,VALID,351,VALID,0.999442,
2005-09-25, 02:03:00,VALID,918.342,VALID,0,VALID,100,VALID,-0.0169808,VALID,18.9534,VALID,354,VALID,1.18438,
2005-09-25, 02:04:00,VALID,918.334,VALID,0,VALID,100,VALID,0,VALID,18.9469,VALID,350,VALID,1.46615,
2005-09-25, 02:05:00,VALID,918.328,VALID,0,VALID,100,VALID,0,VALID,18.9335,VALID,350,VALID,1.82317,
2005-09-25, 02:06:00,VALID,918.341,VALID,0,VALID,100,VALID,0,VALID,18.9268,VALID,357,VALID,1.00977,
2005-09-25, 02:07:00,VALID,918.327,VALID,0,VALID,100,VALID,0,VALID,18.9303,VALID,1,VALID,1.81232,
2005-09-25, 02:08:00,VALID,918.326,VALID,0,VALID,100,VALID,0.0169808,VALID,18.9209,VALID,356,VALID,1.61755,
2005-09-25, 02:09:00,VALID,918.337,VALID,0,VALID,100,VALID,0,VALID,18.9142,VALID,358,VALID,1.01879,
2005-09-25, 02:10:00,VALID,918.326,VALID,0,VALID,100,VALID,0,VALID,18.9005,VALID,350,VALID,1.19105,
2005-09-25, 02:11:00,VALID,918.331,VALID,0,VALID,100,VALID,0,VALID,18.9238,VALID,353,VALID,1.40661,
2005-09-25, 02:12:00,VALID,918.314,VALID,0,VALID,100,VALID,0,VALID,18.9172,VALID,5,VALID,1.21768,
2005-09-25, 02:13:00,VALID,918.31,VALID,0,VALID,100,VALID,0.0169808,VALID,18.9432,VALID,15,VALID,0.649891,
2005-09-25, 02:14:00,VALID,918.323,VALID,0,VALID,100,VALID,0,VALID,18.9524,VALID,5,VALID,0.614462,
2005-09-25, 02:15:00,VALID,918.314,VALID,0,VALID,100,VALID,0,VALID,18.9626,VALID,27,VALID,0.52567,
2005-09-25, 02:16:00,VALID,918.299,VALID,0,VALID,100,VALID,0,VALID,18.9822,VALID,10,VALID,1.13522,
2005-09-25, 02:17:00,VALID,918.275,VALID,0,VALID,100,VALID,0,VALID,18.9633,VALID,353,VALID,1.41879,
2005-09-25, 02:18:00,VALID,918.271,VALID,0,VALID,100,VALID,-0.0169808,VALID,18.9534,VALID,4,VALID,0.915153,
2005-09-25, 02:19:00,VALID,918.253,VALID,0,VALID,100,VALID,0,VALID,18.9598,VALID,22,VALID,1.1436,
2005-09-25, 02:20:00,VALID,918.246,VALID,0,VALID,100,VALID,0,VALID,18.9792,VALID,3,VALID,1.14583,
2005-09-25, 02:21:00,VALID,918.231,VALID,0,VALID,100,VALID,0,VALID,18.9398,VALID,331,VALID,1.47511,
2005-09-25, 02:22:00,VALID,918.209,VALID,0,VALID,100,VALID,0,VALID,18.9204,VALID,347,VALID,1.34357,
2005-09-25, 02:23:00,VALID,918.199,VALID,0,VALID,100,VALID,0.0169808,VALID,18.9365,VALID,360,VALID,1.59737,
2005-09-25, 02:24:00,VALID,918.208,VALID,0,VALID,100,VALID,0.0169808,VALID,18.9142,VALID,342,VALID,0.905342,
2005-09-25, 02:25:00,VALID,918.224,VALID,0,VALID,100,VALID,0,VALID,18.9435,VALID,354,VALID,0.330729,
2005-09-25, 02:26:00,VALID,918.226,VALID,0,VALID,100,VALID,0,VALID,18.9529,VALID,354,VALID,1.13809,
2005-09-25, 02:27:00,VALID,918.233,VALID,0,VALID,100,VALID,0,VALID,18.9502,VALID,1,VALID,1.13808,
2005-09-25, 02:28:00,VALID,918.235,VALID,0,VALID,100,VALID,0,VALID,18.9631,VALID,355,VALID,0.876715,
2005-09-25, 02:29:00,VALID,918.223,VALID,0,VALID,100,VALID,0,VALID,18.9566,VALID,357,VALID,1.21039,
2005-09-25, 02:30:00,VALID,918.211,VALID,0,VALID,100,VALID,0.0169808,VALID,18.9502,VALID,17,VALID,0.762091,
2005-09-25, 02:31:00,VALID,918.234,VALID,0,VALID,100,VALID,0,VALID,18.9695,VALID,6,VALID,0.831321,
2005-09-25, 02:32:00,VALID,918.197,VALID,0,VALID,100,VALID,-0.0169808,VALID,18.976,VALID,353,VALID,0.379002,
2005-09-25, 02:33:00,VALID,918.191,VALID,0,VALID,100,VALID,0,VALID,18.9624,VALID,341,VALID,1.06286,
2005-09-25, 02:34:00,VALID,918.192,VALID,0,VALID,100,VALID,0.0169808,VALID,18.9437,VALID,6,VALID,0.775298,
2005-09-25, 02:35:00,VALID,918.192,VALID,0,VALID,100,VALID,0.0169808,VALID,18.9499,VALID,16,VALID,1.15606,
2005-09-25, 02:36:00,VALID,918.189,VALID,0,VALID,100,VALID,0.0169808,VALID,18.9594,VALID,358,VALID,1.21875,
2005-09-25, 02:37:00,VALID,918.198,VALID,0,VALID,100,VALID,0,VALID,18.9693,VALID,7,VALID,1.4255,
2005-09-25, 02:38:00,VALID,918.189,VALID,0,VALID,100,VALID,0.0169808,VALID,18.9499,VALID,357,VALID,0.971875,
2005-09-25, 02:39:00,VALID,918.2,VALID,0,VALID,100,VALID,0.0339617,VALID,18.9273,VALID,338,VALID,1.31831,
2005-09-25, 02:40:00,VALID,918.218,VALID,0,VALID,100,VALID,0.0169808,VALID,18.9174,VALID,357,VALID,0.412202,
2005-09-25, 02:41:00,VALID,918.203,VALID,0,VALID,100,VALID,0.0169808,VALID,18.94,VALID,16,VALID,0.458333,
2005-09-25, 02:42:00,VALID,918.182,VALID,0,VALID,100,VALID,0.0169808,VALID,18.9529,VALID,15,VALID,0.555078,
2005-09-25, 02:43:00,VALID,918.173,VALID,0,VALID,100,VALID,0,VALID,18.979,VALID,19,VALID,0.628125,
2005-09-25, 02:44:00,VALID,918.154,VALID,0,VALID,100,VALID,0,VALID,18.9849,VALID,19,VALID,0.326705,
2005-09-25, 02:45:00,VALID,918.145,VALID,0,VALID,100,VALID,0,VALID,18.9787,VALID,23,VALID,0.668713,
2005-09-25, 02:46:00,VALID,918.128,VALID,0,VALID,100,VALID,-0.0169808,VALID,19.0018,VALID,17,VALID,0.674665,
2005-09-25, 02:47:00,VALID,918.14,VALID,0,VALID,100,VALID,0,VALID,19.0043,VALID,345,VALID,0.460565,
2005-09-25, 02:48:00,VALID,918.123,VALID,0,VALID,100,VALID,-0.0169808,VALID,19.0117,VALID,10,VALID,0.636242,
2005-09-25, 02:49:00,VALID,918.114,VALID,0,VALID,100,VALID,0,VALID,19.0276,VALID,24,VALID,0.65968,
2005-09-25, 02:50:00,VALID,918.097,VALID,0,VALID,100,VALID,0.0509425,VALID,19.0368,VALID,20,VALID,1.03449,
2005-09-25, 02:51:00,VALID,918.087,VALID,0,VALID,100,VALID,0,VALID,19.0465,VALID,19,VALID,0.524287,
2005-09-25, 02:52:00,VALID,918.066,VALID,0,VALID,100,VALID,0,VALID,19.0401,VALID,23,VALID,0.10119,
2005-09-25, 02:53:00,VALID,918.04,VALID,0,VALID,100,VALID,0.0169808,VALID,19.0401,VALID,21,VALID,0.439631,
2005-09-25, 02:54:00,VALID,918.025,VALID,0,VALID,100,VALID,0,VALID,19.0724,VALID,19,VALID,0.132626,
2005-09-25, 02:55:00,VALID,918.006,VALID,0,VALID,100,VALID,0,VALID,19.0659,VALID,328,VALID,0.347656,
2005-09-25, 02:56:00,VALID,918.002,VALID,0,VALID,100,VALID,0.0169808,VALID,19.0239,VALID,11,VALID,0.761719,
2005-09-25, 02:57:00,VALID,917.985,VALID,0,VALID,100,VALID,0,VALID,19.0175,VALID,19,VALID,0.413281,
2005-09-25, 02:58:00,VALID,917.972,VALID,0,VALID,100,VALID,0,VALID,19.0274,VALID,23,VALID,0.953835,
2005-09-25, 02:59:00,VALID,917.974,VALID,0,VALID,100,VALID,0,VALID,19.0202,VALID,21,VALID,0.823509,
2005-09-25, 03:00:00,VALID,917.979,VALID,0,VALID,100,VALID,0,VALID,19.0276,VALID,330,VALID,0.750572,
2005-09-25, 03:01:00,VALID,917.983,VALID,0,VALID,100,VALID,-0.0339617,VALID,19.0182,VALID,345,VALID,0.316306,
2005-09-25, 03:02:00,VALID,917.97,VALID,0,VALID,100,VALID,-0.0509425,VALID,19.0191,VALID,18,VALID,0.472834,
2005-09-25, 03:03:00,VALID,917.954,VALID,0,VALID,100,VALID,-0.0849042,VALID,19.0355,VALID,7,VALID,0.413862,
2005-09-25, 03:04:00,VALID,917.942,VALID,0,VALID,100,VALID,-0.0679233,VALID,19.0157,VALID,29,VALID,0.704492,
2005-09-25, 03:05:00,VALID,917.921,VALID,0,VALID,100,VALID,-0.101885,VALID,19.0256,VALID,19,VALID,0.578125,
2005-09-25, 03:06:00,VALID,917.903,VALID,0,VALID,100,VALID,-0.0849042,VALID,19.0194,VALID,13,VALID,0.970898,
2005-09-25, 03:07:00,VALID,917.885,VALID,0,VALID,100,VALID,-0.0849042,VALID,19,VALID,25,VALID,1.20185,
2005-09-25, 03:08:00,VALID,917.9,VALID,0,VALID,100,VALID,-0.0509425,VALID,19.0159,VALID,9,VALID,1.12202,
2005-09-25, 03:09:00,VALID,917.895,VALID,0,VALID,100,VALID,-0.0849042,VALID,19.0194,VALID,24,VALID,1.43102,
2005-09-25, 03:10:00,VALID,917.897,VALID,0,VALID,100,VALID,-0.0509425,VALID,19.0127,VALID,21,VALID,1.7104,
2005-09-25, 03:11:00,VALID,917.895,VALID,0,VALID,100,VALID,-0.0679233,VALID,19.0065,VALID,6,VALID,1.5221,
2005-09-25, 03:12:00,VALID,917.898,VALID,0,VALID,100,VALID,-0.0849042,VALID,18.9938,VALID,12,VALID,1.08739,
2005-09-25, 03:13:00,VALID,917.884,VALID,0,VALID,100,VALID,-0.0339617,VALID,18.9901,VALID,6,VALID,1.0665,
2005-09-25, 03:14:00,VALID,917.878,VALID,0,VALID,100,VALID,-0.0509425,VALID,19.0003,VALID,30,VALID,1.26804,
2005-09-25, 03:15:00,VALID,917.888,VALID,0,VALID,100,VALID,-0.0509425,VALID,19.0065,VALID,18,VALID,1.2117,
2005-09-25, 03:16:00,VALID,917.88,VALID,0,VALID,100,VALID,-0.0339617,VALID,19.0122,VALID,34,VALID,0.997713,
2005-09-25, 03:17:00,VALID,917.875,VALID,0,VALID,100,VALID,0.0339617,VALID,19.0016,VALID,26,VALID,1.04891,
2005-09-25, 03:18:00,VALID,917.881,VALID,0,VALID,100,VALID,0.0509425,VALID,19.0046,VALID,17,VALID,0.735102,
2005-09-25, 03:19:00,VALID,917.904,VALID,0,VALID,100,VALID,0.0509425,VALID,19.0046,VALID,17,VALID,0.86452,
2005-09-25, 03:20:00,VALID,917.925,VALID,0,VALID,100,VALID,0.0339617,VALID,19.014,VALID,12,VALID,0.0735394,
2005-09-25, 03:21:00,VALID,917.93,VALID,0,VALID,100,VALID,0.0169808,VALID,19.0246,VALID,12,VALID,0.0199855,
2005-09-25, 03:22:00,VALID,917.947,VALID,0,VALID,100,VALID,0.0339617,VALID,19.0209,VALID,62,VALID,0.44401,
2005-09-25, 03:23:00,VALID,917.96,VALID,0,VALID,100,VALID,0.0509425,VALID,19.018,VALID,184,VALID,0.423018,
2005-09-25, 03:24:00,VALID,917.97,VALID,0,VALID,100,VALID,0.0509425,VALID,19.0209,VALID,184,VALID,0.384673,
2005-09-25, 03:25:00,VALID,917.977,VALID,0,VALID,100,VALID,0.0339617,VALID,19.0177,VALID,184,VALID,0.326982,
2005-09-25, 03:26:00,VALID,917.986,VALID,0,VALID,100,VALID,0.0339617,VALID,19.0406,VALID,184,VALID,0.0631944,
2005-09-25, 03:27:00,VALID,917.998,VALID,0,VALID,100,VALID,0.0509425,VALID,19.0306,VALID,183,VALID,0.50728,
2005-09-25, 03:28:00,VALID,917.974,VALID,0,VALID,100,VALID,0.0679233,VALID,19.008,VALID,217,VALID,0.254794,
2005-09-25, 03:29:00,VALID,917.971,VALID,0,VALID,100,VALID,0.0509425,VALID,18.9986,VALID,329,VALID,0.307776,
2005-09-25, 03:30:00,VALID,917.961,VALID,0,VALID,100,VALID,0.0679233,VALID,19.0018,VALID,60,VALID,0.482195,
2005-09-25, 03:31:00,VALID,917.965,VALID,0,VALID,100,VALID,0.0339617,VALID,18.976,VALID,78,VALID,0.0688244,
2005-09-25, 03:32:00,VALID,917.953,VALID,0,VALID,100,VALID,-0.0169808,VALID,18.9802,VALID,78,VALID,0.0568182,
2005-09-25, 03:33:00,VALID,917.943,VALID,0,VALID,100,VALID,-0.0679233,VALID,19.0062,VALID,37,VALID,0.290737,
2005-09-25, 03:34:00,VALID,917.939,VALID,0,VALID,100,VALID,-0.0339617,VALID,19.0095,VALID,292,VALID,0.474964,
2005-09-25, 03:35:00,VALID,917.937,VALID,0,VALID,100,VALID,0,VALID,19.0028,VALID,305,VALID,0.52983,
2005-09-25, 03:36:00,VALID,917.941,VALID,0,VALID,100,VALID,-0.0339617,VALID,19.0191,VALID,19,VALID,1.08117,
2005-09-25, 03:37:00,VALID,917.947,VALID,0,VALID,100,VALID,-0.0339617,VALID,19.048,VALID,24,VALID,1.24922,
2005-09-25, 03:38:00,VALID,917.958,VALID,0,VALID,100,VALID,-0.0169808,VALID,19.0614,VALID,24,VALID,1.08457,
2005-09-25, 03:39:00,VALID,917.956,VALID,0,VALID,100,VALID,-0.0849042,VALID,19.0606,VALID,23,VALID,0.893714,
2005-09-25, 03:40:00,VALID,917.965,VALID,0,VALID,100,VALID,-0.0169808,VALID,19.0542,VALID,356,VALID,0.695858,
2005-09-25, 03:41:00,VALID,917.968,VALID,0,VALID,100,VALID,-0.0849042,VALID,19.0286,VALID,17,VALID,1.36426,